TimeMST,TemperatureF,Dew PointF,Humidity,Sea Level PressureIn,VisibilityMPH,Wind Direction,Wind SpeedMPH,Gust SpeedMPH,PrecipitationIn,Events,Conditions,WindDirDegrees,DateUTC
12:53 AM,79.0,61.0,54,29.73,10.0,East,6.9,-,N/A,,Clear,90,2013-09-13 07:53:00
1:53 AM,79.0,61.0,54,29.72,10.0,ESE,8.1,-,N/A,,Clear,110,2013-09-13 08:53:00
2:53 AM,78.1,61.0,56,29.71,10.0,ESE,9.2,-,N/A,,Clear,120,2013-09-13 09:53:00
3:53 AM,78.1,61.0,56,29.71,10.0,ESE,8.1,-,N/A,,Clear,120,2013-09-13 10:53:00
4:53 AM,77.0,63.0,62,29.71,10.0,ESE,8.1,-,N/A,,Partly Cloudy,120,2013-09-13 11:53:00
5:53 AM,77.0,63.0,62,29.72,10.0,SE,9.2,-,N/A,,Clear,130,2013-09-13 12:53:00
6:53 AM,77.0,63.0,62,29.73,10.0,ESE,6.9,-,N/A,,Clear,120,2013-09-13 13:53:00
7:53 AM,81.0,64.0,56,29.73,10.0,ESE,10.4,-,N/A,,Clear,120,2013-09-13 14:53:00
8:53 AM,84.0,63.0,49,29.72,10.0,ESE,16.1,-,N/A,,Clear,110,2013-09-13 15:53:00
9:53 AM,87.1,63.0,44,29.72,10.0,ESE,15.0,20.7,N/A,,Partly Cloudy,120,2013-09-13 16:53:00
10:53 AM,90.0,62.1,39,29.70,10.0,ESE,12.7,-,N/A,,Clear,120,2013-09-13 17:53:00
11:53 AM,91.9,60.1,34,29.67,10.0,ESE,6.9,-,N/A,,Clear,120,2013-09-13 18:53:00
12:53 PM,95.0,55.9,27,29.63,10.0,ENE,9.2,-,N/A,,Scattered Clouds,70,2013-09-13 19:53:00
1:53 PM,95.0,55.9,27,29.61,10.0,SE,9.2,-,N/A,,Clear,130,2013-09-13 20:53:00
2:53 PM,96.1,52.0,22,29.59,10.0,Calm,Calm,-,N/A,,Clear,0,2013-09-13 21:53:00
3:53 PM,96.1,52.0,22,29.56,10.0,WSW,4.6,-,N/A,,Clear,240,2013-09-13 22:53:00
4:53 PM,96.1,51.1,22,29.56,10.0,South,5.8,-,N/A,,Scattered Clouds,170,2013-09-13 23:53:00
5:53 PM,95.0,48.0,20,29.57,10.0,ENE,4.6,-,N/A,,Clear,70,2013-09-14 00:53:00
6:53 PM,93.0,48.9,22,29.57,10.0,Variable,3.5,-,N/A,,Scattered Clouds,0,2013-09-14 01:53:00
7:53 PM,91.9,54.0,27,29.59,10.0,North,5.8,-,N/A,,Overcast,350,2013-09-14 02:53:00
8:53 PM,90.0,54.0,29,29.61,10.0,ESE,8.1,-,N/A,,Clear,120,2013-09-14 03:53:00
9:53 PM,87.1,57.9,37,29.62,10.0,East,12.7,-,N/A,,Clear,100,2013-09-14 04:53:00
10:53 PM,84.9,59.0,41,29.63,10.0,ESE,12.7,-,N/A,,Clear,120,2013-09-14 05:53:00
11:53 PM,84.0,61.0,46,29.64,10.0,SE,19.6,-,N/A,,Clear,130,2013-09-14 06:53:00